Waarnemingen

Advertentie
Mijn weer
St-Auban-Sur-Durance, Frankrijk (7588): temperatuur & dauwpunt: 14.08.2017 00:00:00 - 20.08.2017 00:00:00 (CEST)St-Auban-Sur-Durance, Frankrijk (7588): temperatuur 5cm: 14.08.2017 00:00:00 - 20.08.2017 00:00:00 (CEST)St-Auban-Sur-Durance, Frankrijk (7588): temperatuur -20cm: 14.08.2017 00:00:00 - 20.08.2017 00:00:00 (CEST)St-Auban-Sur-Durance, Frankrijk (7588): windsnelheid & windstoten: 14.08.2017 00:00:00 - 20.08.2017 00:00:00 (CEST)St-Auban-Sur-Durance, Frankrijk (7588): windrichting: 14.08.2017 00:00:00 - 20.08.2017 00:00:00 (CEST)St-Auban-Sur-Durance, Frankrijk (7588): luchtdruk: 14.08.2017 00:00:00 - 20.08.2017 00:00:00 (CEST)St-Auban-Sur-Durance, Frankrijk (7588): zicht: 14.08.2017 00:00:00 - 20.08.2017 00:00:00 (CEST)St-Auban-Sur-Durance, Frankrijk (7588): Zonneschijnduur: 14.08.2017 00:00:00 - 20.08.2017 00:00:00 (CEST)St-Auban-Sur-Durance, Frankrijk (7588): neerslag: 14.08.2017 00:00:00 - 20.08.2017 00:00:00 (CEST)
Datum & Tijd tt [°C] td [°C] tt 5cm [°C] tt -20cm [°C] ff [km/u] ff [kn] fx [km/u] fx [kn] dd ppp [hPa] vv [km] sd [min] rr [mm]
20.08.2017 00:00:00 19,5 4,8 18,9 29,0 11 6 42 23 N 1016,4 20 0 0,0
19.08.2017 23:00:00 20,9 3,6 20,2 29,1 20 11 44 24 N 1015,9 20 0 0,0
19.08.2017 22:00:00 21,8 4,8 21,3 29,2 32 17 51 28 NNW 1015,1 20 0 0,0
19.08.2017 21:00:00 23,5 5,4 23,1 29,2 21 11 40 22 N 1014,5 20 0 0,0
19.08.2017 20:00:00 25,5 5,1 25,6 29,1 20 11 36 19 N 1013,7 20 23 0,0
19.08.2017 19:00:00 28,2 3,8 31,7 28,9 25 14 42 23 NNW 1012,5 20 60 0,0
19.08.2017 18:00:00 30,4 3,4 34,7 28,6 21 11 42 23 N 1011,9 20 60 0,0
19.08.2017 17:00:00 30,8 -0,8 37,0 28,3 21 11 39 21 N 1011,7 20 60 0,0
19.08.2017 16:00:00 30,9 0,3 36,7 28,0 21 12 38 20 NNO 1011,7 20 60 0,0
19.08.2017 15:00:00 30,1 4,7 35,6 27,7 21 11 41 22 N 1011,9 20 60 0,0
19.08.2017 14:00:00 28,8 6,8 33,9 27,5 23 13 39 21 N 1012,5 20 60 0,0
19.08.2017 13:00:00 27,6 7,4 31,5 27,4 15 8 42 23 NO 1013,2 20 58 0,0
19.08.2017 12:00:00 25,7 8,2 29,8 27,4 26 14 42 23 N 1014,2 20 56 0,0
19.08.2017 11:00:00 24,6 10,1 28,3 27,5 24 13 42 23 N 1014,4 20 60 0,0
19.08.2017 10:00:00 23,4 11,4 25,6 27,6 22 12 39 21 N 1014,7 20 60 0,0
19.08.2017 09:00:00 22,2 12,2 22,9 27,8 17 9 37 20 N 1014,8 20 54 0,0
19.08.2017 08:00:00 21,6 12,2 20,9 28,0 24 13 42 23 N 1014,5 20 44 0,0
19.08.2017 07:00:00 21,2 12,9 20,9 28,2 20 11 43 23 N 1014,5 20 0 0,0
19.08.2017 06:00:00 22,0 13,6 21,6 28,3 21 12 44 24 N 1014,2 20 0 0,0
19.08.2017 05:00:00 22,7 14,3 22,4 28,5 27 14 44 24 N 1014,2 20 0 0,0
19.08.2017 04:00:00 23,2 14,2 23,0 28,7 24 13 37 20 N 1014,0 20 0 0,0
19.08.2017 03:00:00 23,7 13,6 21,2 28,9 16 9 29 16 N 1013,7 20 0 0,0
19.08.2017 02:00:00 21,5 13,4 21,1 29,0 8 5 11 6 NO 1014,2 20 0 0,0
19.08.2017 01:00:00 21,7 13,8 20,6 29,2 4 2 8 4 NO 1014,7 20 0 0,0
19.08.2017 00:00:00 23,0 14,0 22,4 29,3 3 2 11 6 ONO 1015,0 20 0 0,0
18.08.2017 23:00:00 23,4 14,1 22,7 29,4 8 5 13 7 W 1015,4 20 0 0,0
18.08.2017 22:00:00 25,4 13,6 25,0 29,4 4 2 16 8 ZW 1014,7 20 0 0,0
18.08.2017 21:00:00 27,2 12,4 27,0 29,3 5 3 26 14 NNO 1014,4 20 0 0,0
18.08.2017 20:00:00 28,2 12,5 28,5 29,2 17 9 35 19 ZZW 1013,9 20 45 0,0
18.08.2017 19:00:00 30,1 11,1 31,9 29,0 22 12 44 24 ZZW 1012,9 20 39 0,0
18.08.2017 18:00:00 33,4 10,1 36,0 28,6 30 16 47 25 ZZW 1012,3 20 47 0,0
18.08.2017 17:00:00 35,2 8,9 40,2 28,1 26 14 37 20 ZW 1011,3 20 60 0,0
18.08.2017 16:00:00 34,5 9,0 40,4 27,7 24 13 39 21 ZW 1011,9 20 60 0,0
18.08.2017 15:00:00 34,5 8,3 39,8 27,3 21 11 35 19 ZW 1012,4 20 60 0,0
18.08.2017 14:00:00 33,5 8,2 39,0 26,9 20 11 31 17 ZW 1013,0 20 60 0,0
18.08.2017 13:00:00 32,3 9,2 37,2 26,6 18 10 28 15 ZW 1014,1 20 60 0,0
18.08.2017 12:00:00 30,9 10,8 35,3 26,5 16 9 25 14 ZW 1015,1 20 60 0,0
18.08.2017 11:00:00 28,3 11,8 32,9 26,5 10 5 18 10 O 1016,1 20 60 0,0
18.08.2017 10:00:00 25,2 13,1 26,9 26,7 9 5 18 10 NNO 1016,9 20 60 0,0
18.08.2017 09:00:00 22,1 13,2 22,2 26,9 6 4 17 9 ONO 1017,7 20 60 0,0
18.08.2017 08:00:00 19,0 12,5 16,6 27,2 4 2 16 8 NO 1018,2 20 44 0,0
18.08.2017 07:00:00 17,3 12,2 15,6 27,4 6 4 15 8 ONO 1018,5 20 0 0,0
18.08.2017 06:00:00 17,2 11,7 15,7 27,6 6 3 13 7 NO 1018,2 20 0 0,0
18.08.2017 05:00:00 16,9 11,6 16,4 27,8 9 5 15 8 NNO 1018,1 20 0 0,0
18.08.2017 04:00:00 17,5 11,5 16,5 28,0 7 4 12 6 NO 1018,0 20 0 0,0
18.08.2017 03:00:00 18,4 11,7 17,6 28,2 9 5 12 7 NO 1018,2 20 0 0,0
18.08.2017 02:00:00 19,5 11,5 18,4 28,4 5 3 15 8 NNO 1018,0 20 0 0,0
18.08.2017 01:00:00 20,8 11,1 19,6 28,6 0 0 7 4 N 1018,0 20 0 0,0
18.08.2017 00:00:00 21,9 11,0 20,9 28,7 0 0 12 6 N 1017,6 20 0 0,0
17.08.2017 23:00:00 22,5 10,3 21,7 28,8 5 3 7 4 WNW 1017,2 20 0 0,0
17.08.2017 22:00:00 25,5 9,7 23,6 28,8 5 3 16 8 NW 1016,5 20 0 0,0
17.08.2017 21:00:00 28,0 9,3 26,0 28,8 11 6 19 11 ZZW 1015,5 20 0 0,0
17.08.2017 20:00:00 31,2 8,8 30,9 28,6 16 9 28 15 ZZW 1014,3 20 34 0,0
17.08.2017 19:00:00 33,3 8,0 36,2 28,3 24 13 34 18 ZW 1013,6 20 60 0,0
17.08.2017 18:00:00 33,9 8,5 37,4 28,0 21 12 32 17 ZZW 1013,5 20 57 0,0
17.08.2017 17:00:00 34,0 7,1 37,6 27,5 20 11 34 19 Z 1013,4 20 57 0,0
17.08.2017 16:00:00 34,2 7,3 40,0 27,0 14 8 27 14 ZZW 1013,8 20 60 0,0
17.08.2017 15:00:00 33,5 8,2 40,2 26,6 15 8 25 14 ZZW 1014,4 20 60 0,0
17.08.2017 14:00:00 32,4 6,6 39,4 26,2 7 4 20 11 ZZW 1015,3 20 60 0,0
17.08.2017 13:00:00 31,5 7,9 36,1 25,9 9 5 18 10 ZZW 1016,0 19 60 0,0
17.08.2017 12:00:00 29,0 8,6 34,3 25,8 5 3 18 10 ONO 1017,1 20 60 0,0
17.08.2017 11:00:00 25,7 10,7 28,1 25,9 9 5 23 12 NNO 1018,1 20 60 0,0
17.08.2017 10:00:00 22,8 11,5 25,5 26,0 12 6 27 15 NNO 1018,7 20 60 0,0
17.08.2017 09:00:00 21,0 11,6 20,6 26,1 15 8 33 18 NNO 1018,8 20 58 0,0
17.08.2017 08:00:00 19,4 12,2 18,3 26,3 14 8 32 17 ONO 1019,0 20 56 0,0
17.08.2017 07:00:00 18,5 12,3 18,0 26,5 14 8 34 19 NO 1018,7 20 0 0,0
17.08.2017 06:00:00 18,8 12,5 18,3 26,7 16 9 34 18 ONO 1018,1 20 0 0,0
17.08.2017 05:00:00 19,2 12,7 18,9 26,9 20 11 39 21 NNO 1018,0 20 0 0,0
17.08.2017 04:00:00 19,6 13,1 19,4 27,1 20 11 39 21 NNO 1017,9 20 0 0,0
17.08.2017 03:00:00 20,0 13,2 19,7 27,3 20 11 36 19 NNO 1018,0 20 0 0,0
17.08.2017 02:00:00 20,7 13,4 20,5 27,4 16 9 29 15 NNO 1018,3 20 0 0,0
17.08.2017 01:00:00 21,3 13,5 20,7 27,6 16 9 31 17 NO 1018,4 20 0 0,0
17.08.2017 00:00:00 21,7 13,3 21,2 27,7 14 7 24 13 NO 1018,5 20 0 0,0
16.08.2017 23:00:00 22,6 13,4 22,0 27,9 10 6 23 12 NNO 1018,4 20 0 0,0
16.08.2017 22:00:00 23,6 13,5 23,1 27,9 14 8 32 17 NNO 1018,2 20 0 0,0
16.08.2017 21:00:00 24,5 12,4 24,3 27,9 22 12 39 21 N 1017,7 20 0 0,0
16.08.2017 20:00:00 25,7 11,5 26,2 27,9 14 7 29 16 NO 1016,8 20 47 0,0
16.08.2017 19:00:00 26,7 10,4 27,6 27,8 22 12 38 20 N 1016,4 20 0 0,0
16.08.2017 18:00:00 27,0 9,8 28,3 27,6 23 12 60 33 N 1016,9 20 0 0,0
16.08.2017 17:00:00 28,9 9,1 30,6 27,3 36 19 55 30 N 1016,7 20 0 0,0
16.08.2017 16:00:00 32,1 5,6 34,1 27,0 22 12 35 19 ZZW 1015,0 20 5 0,0
16.08.2017 15:00:00 33,5 6,7 38,7 26,5 19 10 27 14 ZZW 1014,4 20 41 0,0
16.08.2017 14:00:00 32,7 6,1 38,8 26,2 10 6 24 13 ZW 1015,0 20 60 0,0
16.08.2017 13:00:00 31,4 6,4 37,1 25,9 7 4 18 10 O 1015,8 20 60 0,0
16.08.2017 12:00:00 29,0 9,2 33,0 25,9 11 6 25 13 NO 1016,7 20 60 0,0
16.08.2017 11:00:00 26,4 10,5 29,3 25,9 16 8 28 15 NO 1017,8 20 60 0,0
16.08.2017 10:00:00 24,0 11,7 27,4 26,0 14 7 31 17 NO 1018,3 20 60 0,0
16.08.2017 09:00:00 22,0 12,3 22,7 26,2 10 6 22 12 NO 1019,2 20 60 0,0
16.08.2017 08:00:00 19,7 12,5 16,5 26,4 7 4 18 10 ONO 1019,6 20 45 0,0
16.08.2017 07:00:00 17,0 10,6 15,8 26,6 3 2 11 6 NO 1019,9 20 0 0,0
16.08.2017 06:00:00 18,1 10,5 16,7 26,8 4 2 14 7 O 1019,5 20 0 0,0
16.08.2017 05:00:00 18,7 10,3 17,6 27,0 3 1 24 13 Z 1019,4 20 0 0,0
16.08.2017 04:00:00 20,3 11,8 17,2 27,2 12 6 22 12 NO 1019,2 20 0 0,0
16.08.2017 03:00:00 18,4 8,4 17,4 27,4 5 3 10 6 NNO 1019,8 20 0 0,0
16.08.2017 02:00:00 20,0 8,0 19,0 27,5 7 4 22 12 ONO 1019,6 20 0 0,0
16.08.2017 01:00:00 20,5 7,8 19,6 27,7 4 2 10 6 OZO 1021,0 20 0 0,0
16.08.2017 00:00:00 20,8 7,1 20,3 27,8 4 2 6 3 ZW 1020,6 20 0 0,0
15.08.2017 23:00:00 22,1 7,1 21,5 27,9 3 2 13 7 ZO 1020,4 20 0 0,0
15.08.2017 22:00:00 22,2 6,0 21,3 28,0 10 6 25 14 W 1019,7 20 0 0,0
15.08.2017 21:00:00 25,4 6,6 24,8 27,9 17 9 31 17 ZZW 1018,0 20 0 0,0
15.08.2017 20:00:00 28,5 7,7 28,4 27,7 19 10 28 15 ZZW 1017,2 20 36 0,0
15.08.2017 19:00:00 31,8 6,8 33,4 27,5 19 10 30 16 ZW 1016,1 20 48 0,0
15.08.2017 18:00:00 32,3 5,7 34,7 27,2 17 9 32 17 ZZW 1016,1 20 45 0,0
15.08.2017 17:00:00 31,8 3,7 34,2 26,8 23 13 37 20 ZW 1016,5 20 18 0,0
15.08.2017 16:00:00 32,1 3,1 35,5 26,4 23 12 34 19 ZW 1016,5 20 27 0,0
15.08.2017 15:00:00 32,2 1,3 35,2 25,9 17 9 25 14 ZZW 1016,8 20 42 0,0
15.08.2017 14:00:00 31,2 1,5 36,3 25,5 13 7 24 13 WZW 1017,3 20 60 0,0
15.08.2017 13:00:00 29,5 1,9 35,5 25,2 12 7 19 11 ZW 1018,4 20 60 0,0
15.08.2017 12:00:00 27,8 3,5 33,5 25,1 5 3 16 9 ZZW 1019,5 20 60 0,0
15.08.2017 11:00:00 26,2 3,4 29,3 25,1 7 4 14 8 ZZW 1020,2 20 60 0,0
15.08.2017 10:00:00 21,6 8,5 23,5 25,3 6 3 15 8 NO 1021,2 20 60 0,0
15.08.2017 09:00:00 18,2 9,3 19,5 25,5 9 5 15 8 NO 1021,9 20 60 0,0
15.08.2017 08:00:00 15,7 9,1 13,4 25,8 5 3 13 7 ONO 1022,3 20 48 0,0
15.08.2017 07:00:00 13,5 8,5 12,3 26,0 9 5 15 8 NNO 1022,2 20 0 0,0
15.08.2017 06:00:00 13,9 8,1 12,4 26,3 9 5 15 8 NNO 1021,8 20 0 0,0
15.08.2017 05:00:00 13,6 8,4 12,5 26,5 8 5 12 6 NNO 1022,1 20 0 0,0
15.08.2017 04:00:00 14,1 8,1 12,8 26,7 8 4 11 6 NO 1022,2 20 0 0,0
15.08.2017 03:00:00 14,8 7,3 13,5 26,9 6 3 9 5 NO 1022,0 20 0 0,0
15.08.2017 02:00:00 16,1 7,3 14,9 27,2 4 2 15 8 NNO 1021,5 20 0 0,0
15.08.2017 01:00:00 18,0 7,4 15,9 27,4 8 5 16 9 OZO 1021,1 20 0 0,0
15.08.2017 00:00:00 18,2 7,6 16,6 27,6 6 4 10 6 OZO 1021,2 20 0 0,0
14.08.2017 23:00:00 20,1 6,8 18,2 27,7 3 1 13 7 ZW 1020,9 20 0 0,0
14.08.2017 22:00:00 22,2 6,4 20,7 27,8 11 6 17 9 ZW 1020,0 20 0 0,0
14.08.2017 21:00:00 24,8 6,0 23,7 27,7 10 5 26 14 ZW 1018,7 20 0 0,0
14.08.2017 20:00:00 27,1 5,4 27,0 27,6 16 9 31 17 Z 1017,4 20 39 0,0
14.08.2017 19:00:00 29,1 5,8 33,1 27,3 16 8 30 16 Z 1016,7 20 60 0,0
14.08.2017 18:00:00 30,3 6,9 34,8 26,9 19 10 35 19 ZZW 1016,4 20 60 0,0
14.08.2017 17:00:00 30,7 6,5 35,3 26,5 17 9 41 22 ZZW 1016,2 20 60 0,0
14.08.2017 16:00:00 30,4 6,3 33,0 26,1 24 13 51 28 ZW 1016,2 20 51 0,0
14.08.2017 15:00:00 31,3 6,4 36,0 25,6 29 16 42 23 ZW 1016,4 20 60 0,0
14.08.2017 14:00:00 30,6 5,8 36,1 25,1 20 11 32 17 ZW 1016,6 20 60 0,0
14.08.2017 13:00:00 29,1 5,2 35,6 24,8 10 5 22 12 ZZW 1017,2 20 60 0,0
14.08.2017 12:00:00 27,4 6,7 33,6 24,7 7 4 15 8 ZZW 1017,9 20 60 0,0
14.08.2017 11:00:00 25,1 7,7 28,4 24,7 5 3 16 9 NNO 1018,5 20 60 0,0
14.08.2017 10:00:00 21,9 11,3 23,6 24,9 8 5 15 8 O 1019,3 20 60 0,0
14.08.2017 09:00:00 18,6 10,4 19,4 25,1 6 4 11 6 ONO 1019,8 20 60 0,0
14.08.2017 08:00:00 15,7 10,2 13,0 25,3 6 3 12 6 NO 1020,3 20 46 0,0
14.08.2017 07:00:00 13,3 9,4 12,5 25,5 9 5 11 6 NNO 1020,4 20 0 0,0
14.08.2017 06:00:00 13,9 9,3 13,2 25,7 7 4 14 8 NNO 1020,1 20 0 0,0
14.08.2017 05:00:00 14,5 9,7 13,6 26,0 9 5 12 6 NNO 1019,7 20 0 0,0
14.08.2017 04:00:00 14,8 9,6 13,7 26,2 8 4 10 5 NNO 1019,7 20 0 0,0
14.08.2017 03:00:00 16,1 9,7 14,5 26,4 8 4 11 6 NNO 1019,4 20 0 0,0
14.08.2017 02:00:00 16,3 9,0 15,3 26,6 5 3 13 7 ZO 1019,6 20 0 0,0
14.08.2017 01:00:00 17,6 9,0 16,5 26,8 7 4 13 7 ZO 1019,3 20 0 0,0
14.08.2017 00:00:00 19,2 8,5 17,7 26,9 0 0 7 4 N 1018,9 20 0 0,0

tt = temperatuur
td = dauwpunt
tt 5cm = temperatuur 5cm
tt -20cm = temperatuur -20cm
ff = windsnelheid
fx = windstoten
dd = windrichting
ppp = luchtdruk
vv = zicht
sd = Zonneschijnduur
rr = neerslag

Weerstations in de omgeving